CW7959 Weather Reports


Display with metric or nautical units.
time (UTC)temp
F
wind
direction
speed
MPH
gust
MPH
rain 1hr
in
rain 24hr
in
rain mn
in
humidity
%
barometer
mb
20260905222403 53 216 0.0 2.0 0.00 0.03 0.03 93 1019.2
20260905221903 53 216 1.0 3.0 0.00 0.04 0.03 93 1019.2
20260905221404 53 216 0.0 3.0 0.00 0.04 0.03 93 1019.5
20260905220403 53 216 1.0 3.0 0.01 0.04 0.03 93 1019.4
20260905215904 53 216 0.0 0.0 0.01 0.04 0.03 93 1019.5
20260905215403 53 216 0.0 0.0 0.01 0.04 0.03 93 1019.6
20260905214903 53 216 0.0 1.0 0.01 0.04 0.03 93 1019.8
20260905213404 53 216 0.0 0.0 0.01 0.04 0.03 93 1019.9
20260905212904 53 216 0.0 0.0 0.01 0.04 0.03 93 1020.0
20260905212404 53 216 0.0 0.0 0.01 0.04 0.03 93 1020.1
20260905211404 53 216 0.0 0.0 0.01 0.04 0.03 93 1020.2
20260905210904 53 216 1.0 3.0 0.00 0.03 0.02 92 1020.2
20260905210404 53 216 0.0 1.0 0.00 0.03 0.02 92 1020.2
20260905205904 53 216 1.0 5.0 0.00 0.03 0.02 92 1020.3
20260905205403 53 216 0.0 2.0 0.00 0.03 0.02 92 1020.3
20260905204903 53 216 0.0 0.0 0.00 0.03 0.02 92 1020.4
20260905204404 53 216 0.0 0.0 0.00 0.03 0.02 92 1020.5
20260905203904 53 216 0.0 0.0 0.00 0.03 0.02 92 1020.5
20260905202904 54 216 0.0 0.0 0.00 0.04 0.02 92 1020.5
20260905202404 54 216 0.0 0.0 0.00 0.05 0.02 92 1020.6
20260905200903 54 216 0.0 0.0 0.00 0.08 0.02 92 1020.7
20260905200403 54 216 0.0 0.0 0.00 0.08 0.02 92 1020.8
20260905195903 54 216 0.0 1.0 0.00 0.09 0.02 91 1020.7
20260905195404 54 216 0.0 1.0 0.00 0.09 0.02 91 1020.6
20260905194904 54 216 0.0 1.0 0.00 0.14 0.02 91 1020.6
20260905194404 54 216 0.0 1.0 0.00 0.23 0.02 91 1020.7
20260905193403 54 216 0.0 2.0 0.00 0.24 0.02 90 1020.5
20260905192904 54 216 0.0 1.0 0.00 0.24 0.02 90 1020.5
20260905192403 55 216 0.0 0.0 0.00 0.24 0.02 90 1020.5
20260905191403 55 216 0.0 0.0 0.00 0.24 0.02 90 1020.2
20260905190903 55 216 0.0 0.0 0.00 0.25 0.02 89 1020.3
20260905190403 55 216 0.0 0.0 0.00 0.26 0.02 89 1020.4
20260905185903 55 216 0.0 0.0 0.00 0.27 0.02 89 1020.3
20260905185403 55 216 0.0 0.0 0.00 0.27 0.02 89 1020.4
20260905184904 55 216 0.0 3.0 0.00 0.27 0.02 89 1020.5
20260905184403 56 216 1.0 5.0 0.00 0.27 0.02 89 1020.5
20260905183903 56 216 6.0 12.0 0.00 0.27 0.02 89 1020.5
20260905183404 56 215 5.0 12.0 0.00 0.27 0.02 87 1020.4
20260905182903 56 215 3.0 7.0 0.00 0.27 0.02 87 1020.5
20260905181403 56 214 2.0 6.0 0.00 0.27 0.02 86 1020.5
20260905180403 56 214 0.0 7.0 0.00 0.27 0.02 85 1020.5
20260905175903 56 214 1.0 8.0 0.00 0.27 0.02 84 1020.4
20260905174403 57 214 1.0 5.0 0.00 0.27 0.02 86 1020.4
20260905173903 57 214 2.0 9.0 0.00 0.27 0.02 86 1020.2
20260905173403 57 214 1.0 7.0 0.00 0.27 0.02 86 1020.2
20260905172904 57 214 3.0 7.0 0.00 0.27 0.02 86 1020.2
20260905172403 58 214 2.0 7.0 0.00 0.27 0.02 86 1020.1
20260905171903 58 214 1.0 5.0 0.00 0.27 0.02 88 1020.1
20260905171403 58 214 1.0 7.0 0.00 0.27 0.02 88 1020.1
20260905170904 58 214 1.0 6.0 0.00 0.27 0.02 87 1020.1
20260905170403 58 214 2.0 8.0 0.00 0.28 0.02 86 1020.0
20260905165404 58 215 0.0 0.0 0.00 0.28 0.02 86 1020.0
20260905164904 57 215 0.0 1.0 0.00 0.29 0.02 85 1019.9
20260905164404 58 215 0.0 3.0 0.00 0.29 0.02 84 1019.8
20260905163904 58 215 0.0 3.0 0.00 0.29 0.02 84 1019.9
20260905163404 58 215 0.0 1.0 0.00 0.29 0.02 87 1019.9
20260905161903 58 215 1.0 3.0 0.00 0.29 0.02 84 1019.7
20260905161404 59 215 0.0 2.0 0.00 0.29 0.02 85 1019.7
20260905160903 59 215 0.0 1.0 0.00 0.29 0.02 84 1019.8
20260905160403 59 215 0.0 3.0 0.00 0.29 0.02 86 1019.8
20260905155904 58 215 2.0 5.0 0.00 0.29 0.02 85 1019.7
20260905155403 58 215 1.0 2.0 0.00 0.29 0.02 84 1019.7
20260905154903 59 215 1.0 5.0 0.00 0.29 0.02 82 1019.7
20260905153903 58 215 1.0 3.0 0.00 0.29 0.02 84 1019.7
20260905153404 58 215 2.0 3.0 0.00 0.29 0.02 86 1019.6
20260905152904 57 215 0.0 1.0 0.00 0.29 0.02 86 1019.7
20260905152403 57 215 0.0 0.0 0.00 0.29 0.02 88 1019.8
20260905151904 57 215 0.0 0.0 0.00 0.29 0.02 86 1019.8
20260905151404 57 215 0.0 1.0 0.00 0.29 0.02 86 1019.8
20260905150903 57 215 1.0 5.0 0.00 0.29 0.02 86 1020.0
20260905150403 57 215 2.0 7.0 0.00 0.29 0.02 85 1019.8
20260905145904 57 215 3.0 6.0 0.00 0.29 0.02 85 1019.8
20260905145403 57 215 2.0 7.0 0.00 0.29 0.02 86 1020.0
20260905144903 57 215 3.0 8.0 0.00 0.29 0.02 85 1019.9
20260905143903 58 208 6.0 9.0 0.00 0.29 0.02 85 1019.8
20260905143404 58 211 5.0 9.0 0.00 0.29 0.02 85 1019.7
20260905142903 58 213 5.0 9.0 0.00 0.29 0.02 85 1019.7
20260905142404 58 214 2.0 8.0 0.00 0.29 0.02 85 1019.7
20260905141904 58 214 2.0 9.0 0.00 0.29 0.02 84 1019.7
20260905140903 58 215 4.0 9.0 0.00 0.29 0.02 84 1019.7
20260905140403 58 214 5.0 12.0 0.00 0.29 0.02 83 1019.8
20260905135903 59 211 5.0 8.0 0.00 0.29 0.02 84 1019.7
20260905134404 59 249 1.0 3.0 0.00 0.29 0.02 83 1019.7
20260905133904 59 249 2.0 5.0 0.00 0.29 0.02 83 1019.7
20260905133403 59 249 0.0 3.0 0.00 0.29 0.02 83 1019.6
20260905132903 59 249 0.0 3.0 0.00 0.29 0.02 83 1019.6
20260905132403 59 249 1.0 3.0 0.00 0.29 0.02 82 1019.6
20260905131904 59 249 2.0 6.0 0.00 0.29 0.02 80 1019.5
20260905131404 60 249 1.0 5.0 0.00 0.29 0.02 80 1019.5
20260905130904 60 249 0.0 3.0 0.00 0.29 0.02 80 1019.4
20260905130404 60 249 1.0 6.0 0.00 0.29 0.02 80 1019.4
20260905125904 60 249 2.0 5.0 0.00 0.29 0.02 79 1019.4
20260905125403 60 249 1.0 3.0 0.00 0.29 0.02 82 1019.4
20260905124903 60 249 2.0 5.0 0.00 0.29 0.02 82 1019.4
20260905124403 60 249 0.0 6.0 0.00 0.29 0.02 84 1019.3
20260905123904 58 246 1.0 5.0 0.00 0.29 0.02 87 1019.3
20260905123403 58 246 1.0 3.0 0.00 0.29 0.02 86 1019.2
20260905122903 58 246 2.0 5.0 0.00 0.29 0.02 86 1019.2
20260905122404 58 246 0.0 2.0 0.00 0.29 0.02 88 1019.1
20260905121903 58 246 0.0 1.0 0.00 0.29 0.02 91 1019.1
20260905121404 57 246 0.0 2.0 0.00 0.30 0.02 91 1019.0
20260905120904 57 246 0.0 2.0 0.00 0.31 0.02 91 1019.0
20260905120404 57 246 0.0 3.0 0.00 0.31 0.02 92 1019.0
20260905115904 56 246 1.0 3.0 0.00 0.31 0.02 90 1019.0
20260905115403 57 246 3.0 7.0 0.00 0.31 0.02 87 1019.1
20260905114403 57 217 0.0 2.0 0.01 0.31 0.02 87 1018.7
20260905113904 58 217 0.0 2.0 0.01 0.31 0.02 90 1018.7
20260905113403 57 217 0.0 0.0 0.01 0.31 0.02 89 1018.7
20260905112904 57 217 1.0 5.0 0.01 0.31 0.02 89 1018.6
20260905111904 57 217 0.0 1.0 0.01 0.31 0.02 90 1018.5
20260905111404 57 217 0.0 0.0 0.01 0.31 0.02 93 1018.4
20260905110903 56 217 0.0 5.0 0.01 0.31 0.02 93 1018.4
20260905110404 56 217 0.0 0.0 0.01 0.31 0.02 93 1018.4
20260905105905 56 217 0.0 0.0 0.01 0.31 0.02 92 1018.4
20260905105405 55 217 0.0 2.0 0.01 0.31 0.02 91 1018.5
20260905104904 55 217 0.0 3.0 0.01 0.31 0.02 90 1018.4
20260905104403 56 217 1.0 3.0 0.00 0.31 0.02 88 1018.4
20260905103903 57 217 2.0 7.0 0.00 0.31 0.02 86 1018.3
20260905103403 58 217 2.0 5.0 0.00 0.31 0.02 85 1018.0
20260905102903 58 217 1.0 6.0 0.00 0.31 0.02 81 1017.8
20260905102403 59 212 1.0 7.0 0.00 0.31 0.02 83 1017.8
20260905101904 58 204 1.0 3.0 0.00 0.31 0.02 84 1017.7
20260905101403 57 204 1.0 3.0 0.00 0.31 0.02 86 1017.7
20260905100904 57 204 1.0 3.0 0.00 0.31 0.02 82 1017.7
20260905095904 57 204 0.0 3.0 0.00 0.31 0.02 84 1017.6
20260905095404 57 204 1.0 5.0 0.00 0.31 0.02 84 1017.6
20260905094904 57 204 1.0 5.0 0.00 0.31 0.02 83 1017.5
20260905094404 57 204 1.0 5.0 0.00 0.31 0.02 85 1017.6
20260905093903 57 204 0.0 0.0 0.00 0.31 0.02 87 1017.4
20260905093403 57 204 0.0 3.0 0.00 0.31 0.02 84 1017.4
20260905092903 57 204 2.0 6.0 0.00 0.31 0.02 87 1017.2
20260905091905 55 204 0.0 1.0 0.00 0.31 0.02 89 1017.2
20260905091403 55 204 1.0 5.0 0.00 0.31 0.02 89 1017.2
20260905090904 55 204 0.0 0.0 0.00 0.31 0.02 91 1017.2
20260905090403 55 204 0.0 0.0 0.00 0.31 0.02 91 1017.2
20260905085904 54 204 0.0 0.0 0.00 0.31 0.02 90 1017.2
20260905085404 54 204 0.0 6.0 0.00 0.32 0.02 90 1017.1
20260905084903 54 208 5.0 9.0 0.00 0.32 0.02 89 1017.0
20260905084403 54 212 2.0 12.0 0.00 0.32 0.02 90 1016.8
20260905083403 53 203 1.0 3.0 0.00 0.32 0.02 91 1016.7
20260905082903 53 203 1.0 3.0 0.00 0.32 0.02 91 1016.6
20260905082403 53 203 0.0 3.0 0.00 0.33 0.02 91 1016.5
20260905081903 53 203 2.0 6.0 0.00 0.34 0.02 91 1016.4
20260905080904 53 203 2.0 5.0 0.00 0.39 0.02 91 1016.1
20260905080403 53 203 2.0 6.0 0.00 0.40 0.02 91 1016.0
20260905075404 52 203 1.0 6.0 0.00 0.40 0.02 91 1015.9
20260905074904 53 203 2.0 7.0 0.00 0.41 0.02 91 1015.9
20260905074404 52 206 0.0 2.0 0.00 0.41 0.02 91 1015.8
20260905073903 52 206 3.0 6.0 0.00 0.41 0.02 91 1015.7
20260905073404 52 206 0.0 2.0 0.00 0.41 0.02 91 1015.7
20260905072903 52 206 2.0 5.0 0.00 0.41 0.02 91 1015.6
20260905072403 52 206 0.0 2.0 0.00 0.41 0.02 91 1015.6
20260905071904 52 206 1.0 3.0 0.00 0.42 0.02 91 1015.6
20260905070904 52 206 0.0 3.0 0.00 0.43 0.02 91 1015.4
20260905070403 52 206 1.0 5.0 0.00 0.43 0.02 91 1015.4
20260905065404 52 206 0.0 3.0 0.00 0.43 0.02 91 1015.1
20260905064903 52 206 1.0 3.0 0.00 0.43 0.02 92 1015.1
20260905064403 52 206 2.0 7.0 0.00 0.47 0.02 92 1015.1
20260905063904 52 205 1.0 6.0 0.00 0.48 0.02 92 1015.0
20260905063404 52 205 1.0 3.0 0.00 0.49 0.02 92 1015.0
20260905062903 51 205 1.0 5.0 0.00 0.50 0.02 92 1015.1
20260905061904 52 205 0.0 1.0 0.00 0.57 0.02 93 1014.9
20260905061404 51 205 1.0 7.0 0.00 0.63 0.02 93 1014.8
20260905060904 51 205 1.0 8.0 0.00 0.63 0.02 93 1014.7
20260905060403 51 205 4.0 7.0 0.00 0.63 0.02 93 1014.6
20260905055903 51 205 4.0 8.0 0.00 0.63 0.02 93 1014.5
20260905055404 51 207 2.0 6.0 0.00 0.63 0.02 93 1014.5
20260905054404 51 207 1.0 7.0 0.00 0.65 0.02 93 1014.3
20260905053904 51 207 0.0 7.0 0.00 0.67 0.02 92 1014.2
20260905053404 51 207 3.0 7.0 0.00 0.68 0.02 92 1014.2
20260905052404 51 206 0.0 3.0 0.00 0.69 0.02 92 1014.1
20260905051904 51 206 0.0 3.0 0.00 0.69 0.02 92 1014.1
20260905051404 51 206 1.0 5.0 0.00 0.69 0.02 92 1014.0
20260905050903 51 206 1.0 3.0 0.00 0.69 0.02 92 1013.9
20260905050403 51 206 0.0 3.0 0.00 0.69 0.02 92 1013.9
20260905045904 51 206 1.0 3.0 0.00 0.69 0.02 92 1013.8
20260905045404 51 206 1.0 5.0 0.00 0.69 0.02 92 1013.7
20260905044905 51 206 1.0 7.0 0.00 0.69 0.02 91 1013.8
20260905043904 51 207 2.0 7.0 0.00 0.69 0.02 91 1013.6
20260905043404 51 206 1.0 7.0 0.00 0.69 0.02 91 1013.6
20260905042904 52 205 1.0 7.0 0.00 0.69 0.02 91 1013.6
20260905042404 52 205 1.0 3.0 0.00 0.69 0.02 91 1013.6
20260905041905 52 205 1.0 3.0 0.00 0.70 0.02 91 1013.6
20260905041404 52 206 3.0 7.0 0.00 0.72 0.02 91 1013.5
20260905040904 52 208 2.0 7.0 0.00 0.73 0.02 91 1013.6
20260905040404 52 208 1.0 5.0 0.00 0.74 0.02 91 1013.6
20260905035904 52 208 0.0 7.0 0.00 0.74 0.02 91 1013.5
20260905035404 52 208 3.0 5.0 0.00 0.74 0.02 91 1013.4
20260905034904 52 209 2.0 6.0 0.00 0.74 0.02 92 1013.4
20260905034403 53 208 1.0 6.0 0.00 0.74 0.02 92 1013.4
20260905033904 53 208 1.0 3.0 0.00 0.74 0.02 92 1013.4
20260905033404 53 208 1.0 7.0 0.01 0.74 0.02 92 1013.4
20260905032904 53 207 2.0 6.0 0.01 0.74 0.02 92 1013.2
20260905032404 53 207 1.0 6.0 0.01 0.74 0.02 92 1013.2
20260905031904 53 207 2.0 5.0 0.01 0.74 0.02 92 1013.2
20260905031404 52 207 1.0 8.0 0.01 0.74 0.02 92 1013.2
20260905030904 52 206 1.0 7.0 0.01 0.74 0.02 92 1013.1
20260905030404 52 204 4.0 7.0 0.01 0.74 0.02 92 1013.1
20260905025405 52 204 3.0 9.0 0.01 0.74 0.02 93 1013.1
20260905024405 52 263 0.0 3.0 0.01 0.74 0.02 93 1013.0
20260905023403 52 267 1.0 5.0 0.00 0.73 0.01 93 1012.5
20260905022903 52 267 2.0 7.0 0.00 0.73 0.01 93 1012.4
20260905022404 52 245 0.0 2.0 0.00 0.74 0.01 93 1012.4
20260905021404 52 245 1.0 3.0 0.00 0.75 0.01 93 1012.3
20260905020904 52 245 2.0 8.0 0.00 0.75 0.01 93 1012.1
20260905015904 52 238 0.0 3.0 0.00 0.75 0.01 92 1012.3
20260905015406 52 239 2.0 8.0 0.01 0.76 0.01 92 1012.1
20260905014905 52 247 1.0 3.0 0.01 0.76 0.01 92 1012.1
20260905014406 52 247 0.0 1.0 0.01 0.76 0.01 92 1012.2
20260905013404 52 247 2.0 8.0 0.01 0.76 0.01 91 1012.2
20260905012904 52 260 2.0 3.0 0.01 0.76 0.01 90 1011.9
20260905012405 52 261 1.0 3.0 0.01 0.76 0.01 90 1011.9
20260905011905 52 261 2.0 5.0 0.01 0.76 0.01 90 1011.9
20260905010905 53 263 3.0 9.0 0.01 0.76 0.01 90 1011.9
20260905010405 53 206 3.0 12.0 0.01 0.76 0.01 90 1011.9
20260905005905 53 321 2.0 8.0 0.01 0.76 0.01 90 1011.8
20260905005405 53 295 1.0 9.0 0.00 0.75 0.00 90 1011.5
20260905004905 53 275 0.0 1.0 0.00 0.75 0.00 90 1011.2
20260905003904 53 275 1.0 8.0 0.00 0.75 0.00 90 1011.1
20260905003404 53 234 2.0 8.0 0.00 0.75 0.00 90 1011.2
20260905002904 53 309 2.0 9.0 0.00 0.75 0.00 90 1011.0
20260905002404 53 212 3.0 7.0 0.00 0.75 0.00 90 1011.0
20260905001904 53 205 2.0 10.0 0.00 0.75 0.00 91 1011.0
20260905001404 53 193 2.0 6.0 0.00 0.75 0.00 91 1010.8
20260905000404 53 192 4.0 8.0 0.00 0.75 0.00 92 1010.7
20260904235903 53 213 2.0 5.0 0.00 0.75 0.00 92 1010.7
20260904235404 52 213 2.0 8.0 0.00 0.75 0.00 92 1010.7
20260904234904 52 272 4.0 10.0 0.00 0.75 0.00 93 1010.6
20260904232904 52 246 2.0 7.0 0.00 0.75 0.00 94 1010.0
20260904232403 52 246 3.0 8.0 0.00 0.75 0.00 94 1010.0
20260904231904 52 182 0.0 1.0 0.01 0.75 0.00 94 1009.9
20260904230904 52 182 0.0 0.0 0.01 0.75 0.00 94 1009.9
20260904230404 52 182 1.0 5.0 0.01 0.75 0.00 94 1009.9
20260904225903 52 182 1.0 6.0 0.01 0.75 0.75 94 1009.8
20260904225404 52 186 0.0 2.0 0.01 0.75 0.75 94 1009.8
20260904224905 52 193 2.0 9.0 0.01 0.75 0.75 95 1009.9
20260904224404 52 186 1.0 5.0 0.01 0.75 0.75 95 1009.8
20260904223905 53 186 0.0 3.0 0.01 0.75 0.75 95 1009.5
20260904222905 53 186 0.0 3.0 0.01 0.75 0.75 95 1009.4